GFSSW_850_temp_336.txt.gz
Temp
18 18 18 18 18 18 18 19 19 19 19 19 19 19 19 19 19 20 20 21 21 21 21 21 22 23 23 25 25 26 29 30 31 31 32 28 28 26 25 24 23 23 25 21 17
18 18 18 18 18 18 18 19 18 19 19 19 19 19 19 19 20 19 20 21 22 21 21 22 23 23 25 26 26 27 29 31 33 32 32 29 29 25 26 25 23 22 20 18 18
18 18 18 18 18 18 18 18 18 19 19 19 19 19 19 19 19 23 21 22 22 22 21 22 23 24 26 27 27 27 29 31 31 30 29 30 28 26 26 27 25 21 18 19 19
18 18 18 18 18 18 18 18 18 19 19 19 19 19 19 19 25 21 22 22 22 21 21 22 23 24 27 27 27 27 28 30 30 27 28 29 28 26 26 25 24 20 18 19 19
18 18 18 18 18 18 18 18 18 19 19 19 19 19 18 18 22 22 22 23 22 21 22 23 24 25 27 28 27 27 29 28 28 26 26 27 27 27 23 22 20 18 18 19 19
18 18 18 19 18 18 18 18 19 19 18 18 18 18 18 21 21 21 22 22 21 21 22 23 25 25 26 26 27 28 28 27 26 27 25 26 25 24 21 20 19 17 16 16 18
18 18 18 18 18 18 19 19 18 18 18 18 18 18 16 21 20 21 21 21 20 21 22 22 23 24 25 26 25 26 27 26 26 26 26 25 24 24 20 20 19 17 14 13 14
18 18 18 18 18 18 19 19 19 18 18 18 18 18 20 21 21 21 21 20 21 20 21 21 22 24 25 25 26 26 27 27 28 25 25 25 28 26 20 20 20 18 14 13 14
18 18 18 18 19 19 19 19 19 18 18 18 17 17 23 21 21 21 21 22 21 20 20 21 22 25 25 27 27 27 27 27 27 26 26 25 29 23 20 21 21 19 15 13 12
18 18 19 19 19 19 19 19 19 18 18 18 17 17 21 23 21 21 21 21 22 21 22 23 24 26 27 27 27 27 27 28 28 27 26 26 28 24 21 21 21 20 18 14 13
18 18 19 19 19 19 19 19 18 17 16 21 21 20 21 21 21 22 21 22 23 23 25 24 26 25 27 27 28 27 27 27 28 29 26 27 27 26 22 21 22 20 19 17 16
18 18 19 19 19 19 19 19 18 18 20 20 19 19 19 19 22 22 22 23 24 25 25 25 25 27 27 26 26 26 26 27 28 28 26 27 27 29 24 22 23 21 19 18 16
18 18 19 19 19 19 18 18 19 17 20 23 21 21 21 20 23 24 22 24 25 25 25 25 27 26 25 25 25 26 26 26 26 27 26 26 27 28 28 23 22 21 20 19 17
18 19 19 19 19 19 18 19 19 19 24 25 24 22 22 22 24 23 23 24 25 25 26 26 27 25 25 25 26 25 27 26 26 26 25 27 25 28 28 26 24 23 21 20 18
19 19 19 19 19 19 19 19 19 18 23 25 25 22 22 24 24 24 23 24 25 26 25 26 26 25 25 26 27 25 27 26 26 26 26 26 25 27 29 28 27 24 23 21 19
19 19 19 19 19 19 19 19 18 23 21 24 24 24 25 24 24 25 24 23 24 25 26 26 26 26 26 27 26 27 26 25 25 26 24 26 26 26 28 27 28 28 26 23 20
19 19 19 19 18 19 20 18 24 22 24 22 22 24 24 23 24 24 24 23 23 23 25 26 26 27 26 25 27 26 25 24 24 24 24 27 26 26 28 29 28 28 25 24 20
19 19 19 19 19 20 20 24 20 20 21 22 22 23 22 22 23 23 23 23 22 22 23 23 23 24 25 25 24 25 25 24 23 24 26 28 26 27 26 22 21 21 21 21 18
19 20 18 19 20 20 22 22 19 19 20 20 22 22 22 22 22 22 22 20 20 20 19 21 22 25 25 25 25 24 23 26 23 25 25 26 27 23 22 21 20 20 21 18 16
20 19 19 20 20 20 23 18 19 19 19 21 19 20 20 20 20 21 21 19 19 19 20 20 18 22 23 24 24 23 25 22 24 21 22 25 25 26 23 21 19 18 18 16 15
20 21 19 20 20 21 21 19 19 18 18 19 19 19 19 19 19 20 20 18 18 18 19 19 18 20 21 22 23 23 21 22 23 22 22 22 24 22 21 20 19 17 16 15 14
19 22 18 19 21 20 20 19 16 18 17 18 18 18 17 18 18 18 18 18 17 17 17 18 16 17 18 21 22 22 22 22 21 21 22 23 22 19 18 18 18 16 15 14 13
20 19 18 19 21 20 18 18 16 17 16 16 16 16 17 17 16 17 17 17 16 16 16 17 17 16 18 20 17 16 11 15 18 19 18 19 20 17 16 17 16 15 14 13 12
19 21 18 17 16 18 18 17 17 15 15 15 16 16 16 16 17 16 16 17 15 15 12 14 15 15 15 16 17 15 13 13 13 14 17 20 20 16 16 17 16 15 13 13 12
18 16 15 18 17 16 17 16 16 15 15 14 16 16 15 15 16 16 16 16 15 13 14 14 14 16 16 17 17 16 15 14 10 9 11 15 14 13 15 16 17 14 13 12 11
18 17 15 14 14 16 14 15 15 15 15 15 15 15 15 14 15 14 14 15 14 14 15 14 13 15 15 17 17 16 16 14 12 11 11 12 13 14 14 15 16 14 12 11 9
14 15 17 13 15 17 15 15 14 14 14 14 14 15 15 14 12 12 12 12 13 13 13 13 12 13 14 14 13 14 8 11 11 10 10 11 9 11 13 14 14 13 12 11 8

GFSSW_850_temp_339.txt.gz
Temp
18 19 18 19 19 19 19 19 19 19 19 19 19 19 19 19 19 20 19 22 22 21 22 23 24 24 25 27 28 29 30 31 33 34 34 32 33 31 30 27 27 27 27 24 22
18 18 18 19 18 19 19 19 18 19 19 19 19 19 19 19 20 20 22 21 21 22 22 24 25 26 26 27 29 29 31 32 35 36 35 33 32 30 29 28 27 27 24 23 21
18 18 18 18 18 19 18 18 19 18 18 19 19 19 19 19 19 24 22 21 22 22 22 24 26 27 27 29 29 29 30 33 34 34 33 33 32 30 29 30 28 26 23 22 22
18 18 18 18 18 18 18 18 19 19 18 18 18 19 19 19 26 22 22 22 22 22 22 24 25 27 28 29 30 30 30 31 33 33 31 32 32 30 29 30 28 25 23 23 23
18 18 18 18 19 18 18 18 18 18 18 18 18 18 19 20 24 22 22 23 23 22 23 25 26 27 29 29 30 30 31 31 31 32 31 31 32 31 30 27 26 24 23 23 23
18 18 18 19 18 18 18 18 18 19 19 19 18 18 17 23 23 22 21 22 21 22 24 26 27 27 29 29 29 30 30 30 31 31 31 30 31 30 27 25 24 23 23 23 24
18 18 18 18 18 18 19 19 19 19 19 18 18 18 17 23 22 22 22 23 23 23 25 25 26 27 27 29 29 29 29 31 31 30 31 29 30 29 26 25 23 23 23 23 23
18 18 18 18 19 19 19 19 19 19 18 18 18 18 21 23 22 22 22 23 23 23 24 25 25 26 28 29 28 29 29 29 31 30 30 28 29 30 25 25 23 22 21 20 21
18 18 18 19 19 19 19 19 19 19 18 18 18 17 24 22 22 23 23 24 23 23 23 23 24 25 27 29 29 29 28 29 30 31 30 29 29 32 26 25 25 22 19 18 18
18 18 19 19 19 19 19 19 19 19 18 18 16 19 22 25 24 23 23 24 24 24 24 24 25 26 27 27 28 29 29 30 30 31 30 30 29 28 25 26 26 24 21 18 17
18 18 18 19 19 19 20 19 19 18 17 23 24 24 24 24 23 24 24 24 25 25 26 26 27 27 28 29 29 30 29 30 31 32 30 29 30 29 26 26 26 25 23 20 19
18 18 19 19 19 19 19 21 20 20 23 24 23 24 22 22 25 25 24 25 26 26 28 28 27 29 30 30 29 29 28 28 30 31 31 30 29 31 27 27 27 26 25 22 20
18 19 19 19 19 19 19 20 19 19 23 26 25 25 24 23 26 26 25 25 27 27 28 27 29 29 29 28 27 28 28 28 29 30 30 29 28 29 31 28 28 27 26 24 22
19 19 19 19 19 20 21 19 20 19 24 27 27 25 25 25 27 25 26 26 28 27 28 28 29 29 28 27 28 27 29 29 28 28 28 30 27 29 30 30 29 27 26 24 22
19 19 19 19 19 21 20 19 19 19 24 27 27 25 26 27 27 26 25 26 27 27 27 28 28 27 27 28 29 28 29 28 28 28 28 28 28 29 31 30 30 29 27 25 24
19 19 19 19 19 20 19 19 18 23 23 26 26 26 27 26 26 26 26 26 26 27 28 28 28 29 28 29 29 29 28 28 28 28 26 27 28 28 30 30 31 31 28 27 25
19 19 19 19 21 20 19 20 24 25 26 25 25 26 26 25 26 26 26 26 25 23 26 26 27 29 29 28 28 28 27 25 25 26 26 28 28 28 30 31 31 30 30 28 27
19 19 19 20 19 19 19 24 23 24 23 25 24 25 24 24 25 25 25 25 22 23 24 25 24 25 26 26 25 26 26 24 23 25 27 29 28 30 31 31 29 28 27 26 28
19 20 21 20 21 21 21 24 22 22 22 23 24 24 25 25 24 24 24 23 23 22 20 22 23 26 25 25 25 24 24 26 23 23 24 27 29 30 29 26 26 26 26 26 25
20 22 21 21 21 21 25 20 22 21 22 22 22 23 22 23 22 22 23 22 21 21 21 21 20 23 24 25 25 24 26 24 25 21 21 24 26 25 23 25 23 23 24 23 22
20 24 21 21 22 24 24 23 22 20 20 21 21 21 21 21 21 22 22 21 20 20 20 21 20 20 22 22 23 24 23 22 21 20 20 20 22 21 19 21 21 22 21 20 19
22 25 21 21 24 24 23 22 19 21 20 20 20 20 19 20 20 21 20 20 19 19 18 20 18 18 20 22 23 22 22 18 17 15 16 16 19 20 20 21 21 20 19 19 18
23 23 21 21 24 23 21 21 19 20 19 19 19 19 19 19 18 20 20 20 19 19 17 17 18 17 19 21 22 20 20 19 15 16 18 19 19 12 12 17 18 19 18 17 16
22 25 22 21 20 22 21 20 20 18 18 18 19 19 19 19 20 19 19 19 18 18 14 15 16 16 16 18 19 19 19 20 16 13 12 14 12 11 12 12 13 17 17 16 15
21 20 18 23 21 20 20 20 20 19 18 18 19 19 18 17 18 19 19 18 18 15 17 17 15 16 18 18 19 19 18 19 18 14 10 13 13 13 9 11 12 11 15 15 14
21 21 20 19 18 20 16 19 19 19 18 19 18 18 18 17 17 16 17 17 17 17 17 16 15 16 16 18 18 17 13 15 15 15 15 13 13 14 14 12 12 12 15 14 12
18 18 19 17 19 20 19 18 18 18 18 17 17 18 18 17 16 16 16 15 16 16 15 15 15 15 14 17 17 11 6 9 12 14 12 10 12 12 12 11 13 13 13 11 9

GFSSW_850_temp_342.txt.gz
Temp
18 18 19 19 19 19 19 19 19 19 19 19 19 19 19 19 20 20 21 21 21 23 23 23 24 24 24 26 28 29 29 29 31 33 34 34 34 33 30 27 29 29 26 24 24
18 18 19 19 19 19 19 19 19 19 19 19 19 19 19 19 20 21 22 21 22 22 22 23 26 26 26 27 28 29 29 30 33 34 34 33 34 32 31 30 29 27 25 24 23
18 18 18 19 19 19 19 19 19 19 19 19 19 19 19 19 18 23 23 23 22 22 23 24 26 28 28 28 28 30 30 31 32 33 34 33 32 26 31 30 29 26 25 24 24
18 18 18 18 18 19 19 18 18 19 19 19 19 19 19 19 24 24 24 23 23 23 21 23 25 27 29 29 29 29 31 31 31 32 33 34 30 21 19 28 26 26 24 24 24
18 18 18 18 18 19 19 19 19 19 19 19 19 19 19 19 22 23 24 23 23 23 21 24 26 27 29 30 30 30 31 31 31 32 32 33 33 26 24 24 24 23 24 24 24
18 18 18 18 18 19 19 19 19 19 19 18 19 18 18 21 24 24 23 24 23 22 23 25 27 28 29 30 30 31 30 30 31 32 32 32 32 32 22 22 22 24 25 24 25
18 18 18 18 19 19 19 19 19 19 19 18 18 18 16 21 24 24 23 24 24 23 24 26 27 28 29 29 30 30 29 30 31 31 32 32 31 31 24 22 25 25 25 25 25
18 18 18 18 19 19 19 19 19 19 19 18 18 17 19 24 24 24 24 24 24 25 25 26 26 27 27 29 30 30 29 28 30 31 31 31 29 32 29 27 26 25 26 25 25
18 18 18 19 19 19 19 19 19 19 19 18 18 18 23 24 24 24 24 25 25 25 25 25 24 26 27 28 28 30 27 28 29 31 31 30 29 30 30 27 26 25 25 25 24
18 18 18 19 19 19 19 20 20 19 18 19 18 19 22 25 25 25 25 25 25 25 25 25 26 26 26 26 25 28 29 30 30 31 32 30 29 30 31 28 26 25 24 24 23
18 18 19 19 19 19 20 19 19 18 19 23 25 24 26 26 25 25 25 25 26 26 26 27 27 26 28 28 27 27 28 28 30 32 31 30 30 30 29 28 27 25 23 22 22
18 19 19 19 19 19 20 20 22 22 23 24 26 26 25 25 26 26 25 26 26 26 28 28 27 29 30 30 29 29 28 28 29 30 30 31 30 31 28 28 28 27 23 22 20
19 19 19 19 20 20 20 22 22 22 23 26 27 27 26 25 27 27 26 26 27 27 28 28 29 31 30 29 29 29 28 28 28 30 31 30 29 30 30 28 28 25 23 19 21
19 19 19 20 19 20 22 22 22 21 23 27 28 27 26 27 28 27 27 27 28 28 29 28 30 30 29 29 29 27 29 29 29 28 27 30 28 29 30 30 28 22 20 18 19
19 20 20 19 20 21 22 22 21 21 21 27 28 27 27 28 28 27 27 27 27 27 28 28 28 29 28 28 29 28 29 29 29 28 28 28 27 29 31 30 30 29 27 27 24
20 20 20 19 20 21 22 22 21 23 19 26 28 27 28 28 28 27 27 27 27 26 28 28 29 29 29 29 29 29 28 28 28 27 26 27 28 28 30 30 31 32 30 28 27
20 20 20 20 21 22 22 22 23 23 27 26 25 27 27 26 26 27 27 26 25 23 24 25 27 27 25 25 26 26 26 25 25 26 25 28 28 28 30 31 32 31 32 29 27
20 20 20 21 21 22 21 24 23 25 24 26 26 26 26 26 26 25 25 25 24 23 22 22 22 25 25 25 22 22 22 22 19 20 21 25 25 27 29 30 28 29 31 30 28
20 20 21 22 23 22 23 24 22 23 24 23 25 24 25 26 25 25 24 25 24 22 20 20 21 23 24 24 24 23 22 24 23 23 21 23 25 27 21 19 26 25 25 28 26
20 20 23 23 23 23 25 22 23 23 23 23 23 24 22 23 23 23 24 23 22 22 21 20 19 22 23 23 24 24 25 23 21 18 18 22 22 14 12 14 13 17 24 20 20
20 22 23 23 23 24 25 24 24 23 22 22 22 22 22 22 22 22 23 22 21 21 20 20 19 19 21 21 21 22 22 22 20 18 15 15 17 12 11 11 10 11 14 19 17
20 24 23 23 25 26 24 23 21 22 21 22 22 21 21 21 21 21 21 21 21 20 19 19 17 17 19 21 23 23 22 21 17 17 17 15 15 12 12 11 10 10 11 14 17
21 25 23 23 24 24 23 23 21 22 21 21 21 21 21 20 19 21 21 21 20 20 17 17 17 16 18 20 21 20 20 20 20 19 17 17 17 14 13 10 10 9 10 12 15
22 25 24 23 23 23 23 22 22 20 21 20 20 21 20 20 21 20 20 21 20 18 16 16 16 16 15 17 18 18 16 17 17 16 15 18 17 16 15 14 14 12 10 10 12
23 22 21 23 23 22 22 22 22 21 21 20 20 20 19 18 19 19 19 19 19 17 18 18 16 17 17 17 18 15 13 12 14 12 12 14 12 13 14 13 14 12 11 9 9
21 22 22 21 20 22 17 21 21 21 20 21 19 20 20 19 18 17 18 18 17 18 18 17 15 16 15 18 16 11 13 12 13 13 12 14 12 12 12 12 11 10 9 9 6
18 20 20 20 22 21 21 21 21 20 20 19 19 19 19 18 17 17 17 17 17 17 17 16 15 15 14 17 17 12 11 12 11 11 11 11 9 12 11 10 9 9 9 8 6

GFSSW_850_temp_345.txt.gz
Temp
18 18 18 18 19 19 19 19 19 19 19 19 19 19 19 20 20 19 21 23 22 22 22 23 23 23 23 23 25 26 22 23 24 26 27 30 25 21 21 22 23 25 24 23 23
18 18 18 18 19 19 19 19 19 19 19 19 19 19 19 19 20 22 24 23 22 21 22 22 24 24 24 25 25 24 21 23 26 28 28 30 28 21 22 23 25 25 24 23 23
18 18 18 18 18 19 19 19 19 19 19 19 19 19 19 19 19 24 24 24 23 22 22 23 23 23 25 26 26 25 23 24 27 29 30 29 27 24 21 18 18 23 23 23 23
18 18 18 18 19 19 19 19 19 19 19 19 19 19 19 19 20 23 24 23 23 22 22 23 23 24 23 22 27 23 26 27 28 29 30 28 26 22 21 19 19 21 23 23 23
18 18 18 19 19 19 19 19 19 19 19 18 18 18 18 18 21 23 23 23 23 23 23 22 23 24 22 24 27 24 24 28 29 30 30 31 27 22 21 20 19 18 22 23 23
18 18 18 19 19 19 19 19 19 19 18 18 18 18 18 17 24 24 23 23 23 23 23 23 24 25 26 25 24 28 27 28 30 29 29 28 24 23 18 21 20 21 23 23 23
18 18 18 19 19 19 19 19 19 19 18 18 18 18 17 21 24 24 24 23 24 24 24 24 24 25 26 24 28 28 24 24 26 28 26 30 26 23 18 21 22 23 23 23 24
18 18 19 19 19 19 19 19 19 19 18 18 18 17 18 23 24 24 24 24 24 24 24 25 25 25 26 27 26 23 24 23 24 26 28 28 25 19 20 21 19 22 23 23 24
18 19 19 19 19 19 19 19 19 19 19 18 18 17 19 23 24 25 24 25 25 25 25 25 25 25 25 23 20 22 21 23 24 26 26 26 25 24 18 19 17 18 21 22 24
19 19 19 19 19 20 19 20 20 19 19 18 18 15 22 25 25 25 25 25 25 25 25 25 25 21 20 20 20 22 22 23 23 26 27 25 24 27 20 20 18 17 20 23 23
19 19 19 19 19 20 20 20 20 19 19 21 22 23 25 26 26 25 25 25 25 26 22 25 21 20 20 21 22 24 24 24 25 28 26 26 27 25 28 25 24 25 23 23 22
19 19 19 19 20 20 20 20 22 22 22 23 23 23 26 25 25 26 26 25 25 22 23 23 21 24 25 26 24 24 23 24 26 27 27 25 25 26 25 25 25 24 24 21 19
19 19 19 20 20 20 20 21 22 22 21 24 26 26 26 25 26 26 26 26 25 23 23 22 25 28 27 26 26 25 24 24 24 26 26 25 24 25 27 26 25 24 23 22 20
19 19 20 20 20 20 20 22 22 22 18 25 27 27 26 26 27 27 27 27 26 24 24 24 26 27 26 26 26 23 26 26 26 24 21 26 22 23 25 24 25 20 21 21 21
19 19 20 20 20 21 22 22 22 21 19 26 28 27 27 27 28 27 27 27 25 25 24 23 24 24 23 23 24 21 23 25 25 23 23 23 20 21 24 24 23 21 19 20 22
20 20 20 20 20 21 22 22 22 20 19 24 27 27 26 27 26 27 26 26 26 24 24 23 24 22 22 23 23 22 21 21 23 22 19 23 21 22 17 14 14 14 16 17 18
19 19 19 20 21 21 21 22 18 19 25 24 24 26 26 26 26 25 24 21 20 19 19 21 21 22 22 21 22 21 19 15 16 17 19 18 19 12 14 15 15 14 14 19 18
20 20 20 22 22 21 21 19 19 23 22 24 24 24 25 24 24 24 22 20 20 19 18 18 18 20 22 21 19 21 18 15 14 14 15 17 19 12 14 14 13 13 12 14 19
21 21 22 23 23 22 21 19 19 21 22 22 23 23 22 23 22 22 21 20 20 18 17 16 17 20 21 20 20 19 17 19 16 17 16 16 19 18 14 13 13 11 11 11 13
21 21 22 23 23 23 20 21 21 22 22 22 20 21 20 20 20 20 21 20 20 19 19 17 14 19 20 20 20 18 19 17 16 13 15 18 15 12 11 10 11 11 9 10 11
20 20 23 24 23 23 19 22 23 22 22 21 20 20 20 19 19 19 20 20 20 19 19 14 14 15 17 17 17 17 15 16 15 14 14 13 14 11 10 10 10 11 10 11 11
20 19 23 23 22 23 19 22 22 22 21 21 21 20 19 19 19 19 19 19 20 19 16 15 13 12 15 17 19 17 14 14 13 12 13 12 11 11 11 11 11 10 10 11 11
19 21 23 24 19 18 23 22 22 21 20 20 20 20 20 19 18 18 19 21 20 17 16 16 12 11 13 15 17 15 14 14 13 12 12 11 10 12 12 12 12 11 10 9 11
19 19 23 23 22 20 20 22 21 21 21 20 20 20 19 18 17 17 18 19 19 17 17 16 13 13 11 13 15 13 13 14 12 10 10 11 10 9 10 10 9 10 8 8 9
20 20 21 18 19 20 19 21 21 20 21 20 19 20 18 17 17 17 17 17 18 17 17 14 13 13 14 15 16 13 13 12 11 11 10 11 9 9 10 10 8 9 8 7 6
18 19 19 20 21 20 17 20 20 21 20 19 19 19 18 16 15 15 16 15 16 16 15 14 12 14 13 16 14 11 11 12 12 11 11 11 10 10 11 9 8 8 8 6 7
16 17 18 20 20 19 19 20 20 20 20 20 19 18 17 16 17 17 17 17 16 15 13 14 12 12 11 14 13 12 10 11 11 12 10 9 10 11 9 8 7 7 7 7 7